This is the latest recevied weather packets stored in our database for station/object VE2JJ-13. If no packets are shown the sender has not sent any weather packets the latest 10 day(s).
| Time | Temp. | Humidity | Pressure | Rain* | Wind** | Luminosity | Snow |
|---|---|---|---|---|---|---|---|
| 1778000491 | 17.78° C | 71% | 992.8 hPa | 1.27 mm | - | - | - |
| 1778000160 | 17.78° C | 72% | 992.8 hPa | 1.27 mm | - | - | - |
| 1777999829 | 17.78° C | 70% | 992.6 hPa | 1.27 mm | - | - | - |
| 1777999529 | 17.78° C | 71% | 992.6 hPa | 1.27 mm | - | - | - |
| 1777999198 | 17.78° C | 73% | 992.8 hPa | 1.27 mm | - | - | - |
| 1777998867 | 17.78° C | 74% | 992.8 hPa | 1.27 mm | - | - | - |
| 1777998571 | 18.33° C | 73% | 992.8 hPa | 1.02 mm | - | - | - |
| 1777998267 | 18.89° C | 69% | 992.6 hPa | 1.02 mm | - | - | - |
| 1777997937 | 19.44° C | 66% | 992.6 hPa | 0.25 mm | - | - | - |
| 1777997609 | 20° C | 62% | 992.7 hPa | 0 mm | - | - | - |
| 1777997308 | 20° C | 59% | 992.7 hPa | 0 mm | - | - | - |
| 1777996977 | 20° C | 59% | 992.9 hPa | 0 mm | - | - | - |
| 1777996649 | 20° C | 59% | 992.9 hPa | 0 mm | - | - | - |
| 1777996319 | 20° C | 59% | 992.9 hPa | 0 mm | - | - | - |
| 1777996017 | 20.56° C | 58% | 992.9 hPa | 0 mm | - | - | - |
| 1777995717 | 20.56° C | 58% | 992.9 hPa | 0 mm | - | - | - |
| 1777995418 | 20.56° C | 58% | 992.9 hPa | 0 mm | - | - | - |
| 1777995119 | 20.56° C | 58% | 992.9 hPa | 0 mm | - | - | - |
| 1777994487 | 20.56° C | 58% | 993.1 hPa | 0 mm | - | - | - |
| 1777994158 | 20.56° C | 59% | 993 hPa | 0 mm | - | - | - |
| 1777993858 | 21.11° C | 58% | 993 hPa | 0 mm | - | - | - |
| 1777993561 | 20.56° C | 59% | 993 hPa | 0 mm | - | - | - |
| 1777993231 | 20° C | 59% | 993 hPa | 0 mm | - | - | - |
| 1777992932 | 20° C | 59% | 993 hPa | 0 mm | - | - | - |
| 1777992596 | 20° C | 60% | 993.2 hPa | 0 mm | - | - | - |
* Rain latest hour (hover to see other rain measurements)
** Current wind speed in m/s (hover to see current wind gust speed)